This is the latest recevied weather packets stored in our database for station/object HB9EYW-6. If no packets are shown the sender has not sent any weather packets the latest 10 day(s).
| Time | Temp. | Humidity | Pressure | Rain* | Wind** | Luminosity | Snow |
|---|---|---|---|---|---|---|---|
| 1777459804 | 19.44° C | 25% | 0 hPa | 0 mm | - | - | - |
| 1777459504 | 18.89° C | 26% | 0 hPa | 0 mm | - | - | - |
| 1777459204 | 18.89° C | 24% | 0 hPa | 0 mm | - | - | - |
| 1777458904 | 17.78° C | 30% | 0 hPa | 0 mm | - | - | - |
| 1777458604 | 17.78° C | 28% | 0 hPa | 0 mm | - | - | - |
| 1777458304 | 17.22° C | 30% | 0 hPa | 0 mm | - | - | - |
| 1777458004 | 16.67° C | 30% | 0 hPa | 0 mm | - | - | - |
| 1777457704 | 16.67° C | 32% | 0 hPa | 0 mm | - | - | - |
| 1777457404 | 16.11° C | 31% | 0 hPa | 0 mm | - | - | - |
| 1777457104 | 16.11° C | 31% | 0 hPa | 0 mm | - | - | - |
| 1777456804 | 16.11° C | 31% | 0 hPa | 0 mm | - | - | - |
| 1777456504 | 16.11° C | 31% | 0 hPa | 0 mm | - | - | - |
| 1777456204 | 16.11° C | 32% | 0 hPa | 0 mm | - | - | - |
| 1777455904 | 16.11° C | 31% | 0 hPa | 0 mm | - | - | - |
| 1777455604 | 16.11° C | 32% | 0 hPa | 0 mm | - | - | - |
| 1777455304 | 15.56° C | 34% | 0 hPa | 0 mm | - | - | - |
| 1777455004 | 15.56° C | 34% | 0 hPa | 0 mm | - | - | - |
| 1777454704 | 15.56° C | 33% | 0 hPa | 0 mm | - | - | - |
| 1777454404 | 15° C | 33% | 0 hPa | 0 mm | - | - | - |
| 1777454104 | 15° C | 34% | 0 hPa | 0 mm | - | - | - |
| 1777453804 | 15° C | 34% | 0 hPa | 0 mm | - | - | - |
| 1777453504 | 14.44° C | 34% | 0 hPa | 0 mm | - | - | - |
| 1777453204 | 14.44° C | 34% | 0 hPa | 0 mm | - | - | - |
| 1777452904 | 14.44° C | 34% | 0 hPa | 0 mm | - | - | - |
| 1777452604 | 14.44° C | 33% | 0 hPa | 0 mm | - | - | - |
* Rain latest hour (hover to see other rain measurements)
** Current wind speed in m/s (hover to see current wind gust speed)